Погода в Такоме

США     47°14′53″N   122°27′51″W
темп.,
°C
ветер,
м/с
пор.,
м/с
влажн.,
%
обл.,
%
осадки,
мм/ч
давл.,
гПа
погр.,
м
16 августа, вт
вт1623:00+17зюз12829 0.0 1017114
02:00+16юз129136 0.0 1017110
05:00+15ююз1193100 0.0 101862
08:00+16юз01785 0.0 1019193
11:00+25сз11430 0.0 1018731
14:00+29ссз113240 0.0 10171023
17:00+31с332666 0.0 10151480
20:00+24ссв384583 0.0 1015376
17 августа, ср
ср1723:00+19ссв39520 0.0 1015241
02:00+16ссв14670 0.0 1016137
05:00+15ссв13800 0.0 1016105
08:00+18ссв14650 0.0 1016254
11:00+27ссв35380 0.0 1015783
14:00+32ссв44280 0.0 1013990
17:00+33ссв44270 0.0 1011882
20:00+26ссв254437 0.0 1012150
18 августа, чт
чт1823:00+22юз0056100 0.0 101312
02:00+20с116297 0.0 101329
05:00+19ссв1167100 0.0 101311
08:00+21ссв1161100 0.0 101381
11:00+29ссв2437100 0.0 1013505
14:00+36с1122100 0.0 10111039
17:00+35вюв1123100 0.0 1010986
20:00+28зсз1142100 0.0 101025
19 августа, пт
пт1923:00+22зюз376245 0.0 1012222
02:00+18юз248173 0.0 1012146
05:00+16юз279191 0.0 1014249
08:00+17ююз2693100 0.9 1015391
11:00+19юз3683100 1.3 1016662
14:00+25зюз45515 0.0 10141153
17:00+27зюз45390 0.0 10131475
20:00+22юз47560 0.0 1013497
20 августа, сб
сб2023:00+16ююз26849 0.0 1014245
02:00+14ююз2592100 0.0 1015191
05:00+14ююз149490 0.0 1015161
08:00+16юз1377100 0.0 1015515
11:00+21зюз1255100 0.0 1015952
14:00+27з223488 0.0 10141452
17:00+28з2328100 0.0 10121794
20:00+22зсз37486 0.0 1013333